Find Starlink 32271

NORAD ID: 60368 Int'l Des: 2024-138 Owner: SPXS Country: US Constellation: starlink operational
LEOCIRCULAR

Current View

Loading 3D Globe...

About Starlink 32271

Starlink 32271 (NORAD 60368) is a starlink constellation satellite (v2 mini) launched Aug 4, 2024 by SPXS of US. It operates in LEO, CIRCULAR orbit with a mass of 730.00 kg.

About Starlink 32271

Description loading...

Upcoming Passes

Passes for default location (London). Set your location on the main map for personalized predictions.

Altitude History

Loading altitude history...

Two-Line Element Set

1 60368U 24138P 26176.13272824 .00000910 00000-0 42848-4 0 9992
2 60368 53.1596 170.8265 0001100 85.0314 275.0813 15.30198955107073
Epoch: Jun 25, 2026 • Age: 10 hours

Current Status

Altitude 479.7 km
Velocity 7.63 km/s
Sub-Earth Point 47.27°N, 174.83°W
Launch Date Aug 4, 2024
Age 1.8 years
Type internet

Technical Details

Classification Payload
Mass 730.00 kg
Dry Mass 700.00 kg
Total Mass 730.00 kg
Length 0.30 m
Diameter 4.10 m
Span 29.00 m
Shape Box + pan
Manufacturer SPXS
Bus Type Starlink V2M
Phase Status In Orbit
Owner/State SPXS/US

Most Searched